Location: Unspecified
(35.6961°N, 0.0000°E)
Time: 09:29:28
(UTC+00:00)

Altair - Pass Details

Date: 21 May 2019
Orbit: 1501 x 1683 km, 47.2° (Epoch: 23 June)

Event Time Altitude Azimuth Distance (km) Brightness Sun altitude
Rises 12:27:20 0° 298° (WNW) 4,875 10.1 73.1°
Reaches altitude 10° 12:30:57 10° 289° (WNW) 3,860 9.8 72.8°
Maximum altitude 12:39:07 31° 232° (SW) 2,509 9.5 71.9°
Drops below altitude 10° 12:47:02 10° 174° (S) 3,725 9.9 71.0°
Sets 12:50:30 0° 165° (SSE) 4,681 10.2 70.5°
